This demonstration page uses our WeatherBlox Daily Observations layout. Learn more.

Left ArrowRight Arrow

40.92945, -100.16068

Hourly Observations for February 20, 2022

Temp ( °F °C ) Dew Point ( °F °C ) Humidity (%) Winds ( mph kmh ) Pressure ( in mb ) Visibility ( mi km ) Precip ( " mm )
12:15 am 00:15 Clear 40 4.2 25 -3.7 57 57 SSW 17 28 29.81 1009 10 16 0.00 0.00
12:35 am 00:35 Clear 40 4.3 25 -3.7 56 56 SSW 15 24 29.80 1009 10 16 0.00 0.00
12:55 am 00:55 Clear 40 4.5 25 -3.8 55 55 SSW 17 28 29.79 1009 10 16 0.00 0.00
1:15 am 01:15 Clear 40 4.2 25 -4 56 56 SSW 17 28 29.79 1009 10 16 0.00 0.00
1:35 am 01:35 Clear 40 4.2 24 -4.4 54 54 SW 12 19 29.80 1009 10 16 0.00 0.00
1:55 am 01:55 Clear 39 4 24 -4.5 54 54 SW 12 19 29.80 1009 10 16 0.00 0.00
2:15 am 02:15 Clear 37 2.8 23 -5 57 57 SW 8 13 29.80 1009 10 16 0.00 0.00
2:35 am 02:35 Clear 34 1.1 21 -5.9 60 60 Calm 29.82 1010 10 16 0.00 0.00
2:55 am 02:55 Clear 32 0.2 21 -6.1 63 63 SW 8 13 29.83 1010 10 16 0.00 0.00
3:15 am 03:15 Clear 32 0.2 22 -5.7 65 65 WSW 8 13 29.82 1010 10 16 0.00 0.00
3:35 am 03:35 Clear 32 0.1 22 -5.6 66 66 WSW 10 17 29.83 1010 10 16 0.00 0.00
3:55 am 03:55 Clear 33 0.3 22 -5.8 64 64 WSW 6 9 29.80 1009 10 16 0.00 0.00
4:15 am 04:15 Clear 31 -0.5 21 -6 67 67 WSW 3 6 29.81 1010 10 16 0.00 0.00
4:35 am 04:35 Clear 28 -2.4 19 -7.3 69 69 NW 3 6 29.82 1010 10 16 0.00 0.00
4:55 am 04:55 Clear 25 -3.8 18 -7.6 75 75 NNW 5 7 29.84 1011 10 16 0.00 0.00
5:15 am 05:15 Clear 25 -4 18 -7.6 76 76 Calm 29.85 1011 10 16 0.00 0.00
5:35 am 05:35 Clear 25 -3.7 19 -7.3 76 76 N 3 6 29.84 1011 10 16 0.00 0.00
5:55 am 05:55 Clear 22 -5.5 17 -8.6 79 79 Calm 29.88 1012 10 16 0.00 0.00
6:15 am 06:15 Clear 24 -4.4 18 -8 76 76 NW 8 13 29.87 1012 10 16 0.00 0.00
6:35 am 06:35 Clear 19 -7.2 14 -10 81 81 NW 5 7 29.90 1012 10 16 0.00 0.00
6:55 am 06:55 Clear 24 -4.5 18 -7.9 77 77 NW 7 11 29.88 1012 10 16 0.00 0.00
7:15 am 07:15 Clear 24 -4.6 17 -8.1 77 77 NW 8 13 29.88 1012 10 16 0.00 0.00
7:35 am 07:35 Sunny 25 -3.7 18 -7.9 73 73 NW 7 11 29.88 1012 10 16 0.00 0.00
7:55 am 07:55 Sunny 27 -2.9 19 -7.3 72 72 WNW 10 17 29.88 1012 10 16 0.00 0.00
8:15 am 08:15 Sunny 31 -0.5 20 -6.6 64 64 NNW 3 6 29.86 1011 10 16 0.00 0.00
8:35 am 08:35 Sunny 36 2.1 22 -5.5 58 58 WNW 10 17 29.85 1011 10 16 0.00 0.00
8:55 am 08:55 Sunny 40 4.7 23 -5.1 49 49 WNW 14 22 29.83 1010 10 16 0.00 0.00
9:15 am 09:15 Sunny 43 6.1 23 -5 45 45 WNW 14 22 29.82 1010 10 16 0.00 0.00
9:35 am 09:35 Sunny 46 7.5 23 -5 41 41 NW 16 26 29.81 1010 10 16 0.00 0.00
9:55 am 09:55 Sunny 49 9.4 24 -4.7 37 37 NW 13 20 29.81 1009 10 16 0.00 0.00
10:15 am 10:15 Sunny 51 10.5 24 -4.5 35 35 NW 13 20 29.81 1009 10 16 0.00 0.00
10:35 am 10:35 Sunny 55 12.6 24 -4.4 31 31 NW 10 17 29.80 1009 10 16 0.00 0.00
10:55 am 10:55 Sunny 56 13.3 24 -4.5 29 29 N 10 17 29.79 1009 10 16 0.00 0.00
11:15 am 11:15 Sunny 57 14.1 24 -4.5 27 27 N 10 17 29.78 1009 10 16 0.00 0.00
11:35 am 11:35 Sunny 58 14.4 24 -4.4 27 27 NNE 7 11 29.78 1009 10 16 0.00 0.00
11:55 am 11:55 Sunny 60 15.3 24 -4.2 26 26 N 9 15 29.77 1008 10 16 0.00 0.00
12:15 pm 12:15 Sunny 60 15.7 24 -4.2 25 25 NNE 8 13 29.77 1008 10 16 0.00 0.00
12:35 pm 12:35 Sunny 60 15.5 24 -4.5 25 25 N 7 11 29.76 1008 10 16 0.00 0.00
12:55 pm 12:55 Sunny 61 16.1 23 -4.8 24 24 N 6 9 29.75 1007 10 16 0.00 0.00
1:15 pm 13:15 Sunny 61 16.1 24 -4.7 24 24 NNE 3 6 29.74 1007 10 16 0.00 0.00
1:35 pm 13:35 Sunny 61 16 24 -4.7 24 24 ENE 5 7 29.73 1007 10 16 0.00 0.00
1:55 pm 13:55 Sunny 62 16.7 23 -5 22 22 Calm 29.71 1006 10 16 0.00 0.00
2:15 pm 14:15 Sunny 62 16.9 22 -5.3 22 22 SE 6 9 29.70 1006 10 16 0.00 0.00
2:35 pm 14:35 Sunny 62 16.6 22 -5.6 21 21 Calm 29.70 1006 10 16 0.00 0.00
2:55 pm 14:55 Sunny 62 16.6 22 -5.7 21 21 SE 6 9 29.69 1005 10 16 0.00 0.00
3:15 pm 15:15 Sunny 62 16.9 22 -5.6 21 21 SSE 8 13 29.70 1006 10 16 0.00 0.00
3:35 pm 15:35 Sunny 62 16.7 22 -5.5 22 22 SSE 8 13 29.70 1006 10 16 0.00 0.00
3:55 pm 15:55 Sunny 64 17.6 23 -5.1 21 21 S 9 15 29.69 1006 10 16 0.00 0.00
4:15 pm 16:15 Sunny 62 16.8 22 -5.5 21 21 SSE 9 15 29.70 1006 10 16 0.00 0.00
4:35 pm 16:35 Sunny 63 17 23 -5.2 22 22 SSE 9 15 29.70 1006 10 16 0.00 0.00
4:55 pm 16:55 Sunny 63 17.2 23 -5.2 21 21 SSE 9 15 29.69 1005 10 16 0.00 0.00
5:15 pm 17:15 Sunny 62 16.8 23 -5.2 22 22 SSE 10 17 29.68 1005 10 16 0.00 0.00
5:35 pm 17:35 Sunny 61 16.2 23 -5.2 23 23 SE 8 13 29.69 1005 10 16 0.00 0.00
5:55 pm 17:55 Sunny 59 15.2 22 -5.4 24 24 ESE 5 7 29.69 1006 10 16 0.00 0.00
6:15 pm 18:15 Sunny 57 14 22 -5.3 26 26 SE 7 11 29.71 1006 10 16 0.00 0.00
6:35 pm 18:35 Clear 55 12.5 22 -5.5 28 28 SE 8 13 29.72 1006 10 16 0.00 0.00
6:55 pm 18:55 Clear 48 8.9 20 -6.5 33 33 SSE 9 15 29.75 1007 10 16 0.00 0.00
7:15 pm 19:15 Clear 48 8.8 21 -6.3 34 34 SSE 7 11 29.76 1008 10 16 0.00 0.00
7:35 pm 19:35 Clear 48 8.8 21 -6 35 35 SSE 9 15 29.75 1008 10 16 0.00 0.00
7:55 pm 19:55 Clear 45 7.3 21 -6.3 38 38 SSE 10 17 29.77 1008 10 16 0.00 0.00
8:15 pm 20:15 Clear 43 6.3 21 -6.3 40 40 SSE 8 13 29.77 1008 10 16 0.00 0.00
8:35 pm 20:35 Clear 42 5.7 21 -6 43 43 SSE 9 15 29.77 1008 10 16 0.00 0.00
8:55 pm 20:55 Clear 43 5.9 22 -5.7 43 43 SE 9 15 29.77 1008 10 16 0.00 0.00
9:15 pm 21:15 Clear 42 5.4 22 -5.8 45 45 SSE 9 15 29.77 1008 10 16 0.00 0.00
9:35 pm 21:35 Clear 45 7.3 23 -4.9 42 42 SE 8 13 29.74 1007 10 16 0.00 0.00
9:55 pm 21:55 Clear 44 6.7 23 -5.1 43 43 SE 7 11 29.74 1007 10 16 0.00 0.00
10:15 pm 22:15 Clear 40 4.4 22 -5.6 49 49 ESE 6 9 29.76 1008 10 16 0.00 0.00
10:35 pm 22:35 Clear 40 4.2 22 -5.6 49 49 SE 7 11 29.76 1008 10 16 0.00 0.00
10:55 pm 22:55 Clear 33 0.7 19 -7.1 56 56 ESE 3 6 29.79 1009 10 16 0.00 0.00
11:15 pm 23:15 Clear 36 2 20 -6.4 54 54 Calm 29.77 1008 10 16 0.00 0.00
11:35 pm 23:35 Clear 35 1.6 21 -6.3 56 56 ESE 5 7 29.77 1008 10 16 0.00 0.00
11:55 pm 23:55 Clear 36 2 21 -6.3 55 55 SE 5 7 29.75 1007 10 16 0.00 0.00

Powered by AerisWeather